SV1BYK-2 Weather Reports


Display with metric or nautical units.
time (UTC)temp
F
wind
direction
speed
MPH
gust
MPH
rain 1hr
in
rain 24hr
in
rain mn
in
humidity
%
barometer
mb
20221210082913 65 114 4.0 9.0 0.00 0.00 0.00 80 1014.1
20221210082015 65 95 4.0 8.0 0.00 0.00 0.00 82 1014.1
20221210081113 65 91 2.0 8.0 0.00 0.00 0.00 82 1014.1
20221210080215 65 106 4.0 8.0 0.00 0.00 0.00 82 1013.9
20221210075404 65 96 4.0 7.0 0.00 0.00 0.00 82 1013.9
20221210074503 65 107 2.0 9.0 0.00 0.00 0.00 82 1014.0
20221210073816 65 112 4.0 8.0 0.00 0.00 0.00 82 1014.1
20221210072703 64 118 4.0 8.0 0.00 0.00 0.00 82 1013.9
20221210071803 64 106 4.0 8.0 0.00 0.00 0.00 82 1013.8
20221210071113 64 105 4.0 8.0 0.00 0.00 0.00 82 1013.9
20221210070004 64 92 5.0 9.0 0.00 0.00 0.00 82 1013.7
20221210065617 64 102 4.0 9.0 0.00 0.00 0.00 82 1014.1
20221210064715 64 101 4.0 8.0 0.00 0.00 0.00 83 1013.8
20221210063817 64 107 3.0 7.0 0.00 0.00 0.00 84 1013.9
20221210062704 64 98 3.0 7.0 0.00 0.00 0.00 84 1013.7
20221210062017 64 100 2.0 8.0 0.00 0.00 0.00 84 1014.1
20221210061114 63 114 2.0 4.0 0.00 0.00 0.00 84 1014.0
20221210060216 63 108 2.0 4.0 0.00 0.00 0.00 84 1014.3
20221210055403 64 105 2.0 4.0 0.00 0.00 0.00 84 1014.3
20221210054715 63 105 3.0 4.0 0.00 0.00 0.00 84 1014.2
20221210053603 63 103 1.0 4.0 0.00 0.00 0.00 85 1014.2
20221210052703 63 104 2.0 4.0 0.00 0.00 0.00 85 1014.1
20221210051803 63 100 2.0 4.0 0.00 0.00 0.00 85 1014.0
20221210051115 63 111 2.0 7.0 0.00 0.00 0.00 85 1014.1
20221210050217 63 110 2.0 7.0 0.00 0.00 0.00 85 1014.1
20221210045403 64 105 2.0 7.0 0.00 0.00 0.00 85 1014.1
20221210044716 64 94 2.0 6.0 0.00 0.00 0.00 85 1014.0
20221210043603 63 107 2.0 6.0 0.00 0.00 0.00 86 1014.1
20221210042703 63 108 2.0 6.0 0.00 0.00 0.00 87 1013.8
20221210041803 64 109 2.0 6.0 0.00 0.00 0.00 87 1013.9
20221210040904 64 95 2.0 6.0 0.00 0.00 0.00 88 1013.7
20221210040218 64 105 2.0 8.0 0.00 0.00 0.00 87 1013.8
20221210035614 64 118 1.0 8.0 0.00 0.00 0.00 87 1013.9
20221210034503 64 116 2.0 6.0 0.00 0.00 0.00 88 1013.9
20221210033603 64 105 2.0 6.0 0.00 0.00 0.00 88 1014.2
20221210032703 64 108 1.0 4.0 0.00 0.00 0.00 88 1013.8
20221210032013 64 112 2.0 7.0 0.00 0.00 0.00 89 1013.8
20221210030903 64 96 2.0 7.0 0.00 0.00 0.00 89 1013.7
20221210030003 64 104 4.0 8.0 0.00 0.00 0.00 89 1014.0
20221210025615 64 99 3.0 8.0 0.00 0.00 0.00 89 1013.9
20221210024717 64 108 2.0 4.0 0.00 0.00 0.00 89 1014.2
20221210023603 64 130 1.0 4.0 0.00 0.00 0.00 88 1014.1
20221210022917 64 118 2.0 4.0 0.00 0.00 0.00 89 1014.4
20221210021803 63 118 2.0 6.0 0.00 0.00 0.00 89 1014.5
20221210020903 63 102 2.0 6.0 0.00 0.00 0.00 89 1014.5
20221210020214 63 101 3.0 6.0 0.00 0.00 0.00 89 1014.5
20221210015403 63 107 2.0 6.0 0.00 0.00 0.00 89 1014.2
20221210014713 63 106 1.0 4.0 0.00 0.00 0.00 88 1014.1
20221210013604 63 122 2.0 6.0 0.00 0.00 0.00 89 1014.4
20221210012917 63 176 2.0 6.0 0.00 0.00 0.00 89 1014.6
20221210011804 63 113 2.0 4.0 0.00 0.00 0.00 88 1014.2
20221210010903 63 102 1.0 4.0 0.00 0.00 0.00 88 1014.5
20221210010004 63 209 1.0 2.0 0.00 0.00 0.00 89 1014.7
20221210005403 63 189 1.0 2.0 0.00 0.00 0.00 88 1014.5
20221210004713 63 135 0.0 2.0 0.00 0.00 0.00 88 1014.4
20221210003603 63 119 0.0 2.0 0.00 0.00 0.00 88 1014.9
20221210002703 63 98 1.0 2.0 0.00 0.00 0.00 88 1014.8
20221210002015 63 104 1.0 4.0 0.00 0.00 0.00 88 1014.9
20221210001113 63 108 2.0 2.0 0.00 0.00 0.00 88 1015.2
20221210000003 63 103 1.0 4.0 0.00 0.00 0.00 88 1015.0
20221209235403 63 99 1.0 6.0 0.00 0.00 0.00 88 1014.7
20221209234504 63 123 1.0 6.0 0.00 0.00 0.00 88 1014.9
20221209233603 63 132 2.0 6.0 0.00 0.00 0.00 88 1014.8
20221209232704 63 137 3.0 7.0 0.00 0.00 0.00 88 1015.2
20221209232016 63 141 2.0 9.0 0.00 0.00 0.00 88 1015.0
20221209230903 63 103 3.0 7.0 0.00 0.00 0.00 88 1014.8
20221209230216 63 106 4.0 7.0 0.00 0.00 0.00 88 1015.0
20221209225617 63 111 2.0 9.0 0.00 0.00 0.00 88 1014.9
20221209224715 63 103 3.0 9.0 0.00 0.00 0.00 88 1014.9
20221209223603 63 119 3.0 9.0 0.00 0.00 0.00 88 1014.9
20221209222704 63 118 4.0 9.0 0.00 0.00 0.00 87 1015.3
20221209222017 63 111 3.0 7.0 0.00 0.00 0.00 87 1015.1
20221209221114 64 95 4.0 8.0 0.00 0.00 0.00 86 1015.4
20221209220221 64 102 2.0 8.0 0.00 0.00 0.00 86 1015.4
20221209215613 64 110 3.0 8.0 0.00 0.00 0.00 86 1015.5
20221209214503 64 109 5.0 11.0 0.00 0.00 0.00 86 1015.6
20221209213818 64 122 2.0 9.0 0.00 0.00 0.00 86 1015.5
20221209212703 63 117 2.0 6.0 0.00 0.00 0.00 87 1015.8
20221209212017 64 111 2.0 11.0 0.00 0.00 0.00 87 1015.6
20221209210903 63 105 2.0 7.0 0.00 0.00 0.00 87 1015.8
20221209210217 63 107 3.0 7.0 0.00 0.00 0.00 87 1015.9
20221209205613 63 112 2.0 4.0 0.00 0.00 0.00 87 1015.7
20221209204504 63 100 2.0 7.0 0.00 0.00 0.00 87 1015.6
20221209203604 63 104 3.0 6.0 0.00 0.00 0.00 87 1015.8
20221209202703 63 108 3.0 6.0 0.00 0.00 0.00 87 1016.2
20221209202013 63 95 3.0 6.0 0.00 0.00 0.00 87 1016.1
20221209201115 63 95 3.0 7.0 0.00 0.00 0.00 87 1015.9
20221209200003 63 101 3.0 7.0 0.00 0.00 0.00 87 1016.2
20221209195614 63 102 2.0 6.0 0.00 0.00 0.00 87 1016.2
20221209194717 64 103 2.0 7.0 0.00 0.00 0.00 87 1016.5
20221209193814 64 100 3.0 8.0 0.00 0.00 0.00 87 1016.4
20221209192703 63 103 3.0 7.0 0.00 0.00 0.00 87 1016.5
20221209191803 63 106 3.0 8.0 0.00 0.00 0.00 87 1016.3
20221209190903 63 88 2.0 11.0 0.00 0.00 0.00 87 1016.3
20221209190213 63 92 3.0 11.0 0.00 0.00 0.00 86 1016.3
20221209185403 63 97 3.0 9.0 0.00 0.00 0.00 86 1016.2
20221209184717 63 99 4.0 9.0 0.00 0.00 0.00 86 1016.1
20221209183814 64 99 4.0 9.0 0.00 0.00 0.00 86 1016.3
20221209182704 63 104 2.0 7.0 0.00 0.00 0.00 86 1016.2
20221209182014 63 107 4.0 7.0 0.00 0.00 0.00 85 1016.1
20221209180903 63 109 4.0 8.0 0.00 0.00 0.00 85 1016.3
20221209180003 63 106 3.0 6.0 0.00 0.00 0.00 85 1016.2
20221209175615 63 93 1.0 6.0 0.00 0.00 0.00 85 1016.3
20221209174503 63 123 2.0 9.0 0.00 0.00 0.00 84 1016.3
20221209173815 63 133 3.0 9.0 0.00 0.00 0.00 84 1016.3
20221209172704 63 107 3.0 7.0 0.00 0.00 0.00 85 1016.5
20221209172015 63 108 2.0 7.0 0.00 0.00 0.00 85 1016.4
20221209171117 63 96 4.0 6.0 0.00 0.00 0.00 85 1016.6
20221209170214 63 111 3.0 6.0 0.00 0.00 0.00 85 1016.3
20221209165616 64 114 2.0 7.0 0.00 0.00 0.00 84 1016.4
20221209164713 64 92 2.0 8.0 0.00 0.00 0.00 84 1016.8
20221209163603 64 111 2.0 4.0 0.00 0.00 0.00 84 1016.7
20221209162913 64 95 2.0 4.0 0.00 0.00 0.00 84 1016.8
20221209161803 64 94 3.0 7.0 0.00 0.00 0.00 84 1016.6
20221209161113 64 96 4.0 7.0 0.00 0.00 0.00 84 1016.7
20221209160215 64 109 2.0 4.0 0.00 0.00 0.00 85 1016.7
20221209155403 64 193 1.0 4.0 0.00 0.00 0.00 85 1016.8
20221209154714 64 258 2.0 4.0 0.00 0.00 0.00 85 1016.7
20221209153816 64 163 1.0 4.0 0.00 0.00 0.00 85 1017.0
20221209152914 64 183 2.0 4.0 0.00 0.00 0.00 84 1016.5
20221209151804 64 129 2.0 6.0 0.00 0.00 0.00 84 1016.6
20221209150903 64 240 2.0 4.0 0.00 0.00 0.00 84 1016.6
20221209150216 64 244 2.0 4.0 0.00 0.00 0.00 84 1016.6
20221209145617 64 168 1.0 6.0 0.00 0.00 0.00 84 1016.5
20221209144715 64 242 1.0 6.0 0.00 0.00 0.00 83 1016.6
20221209143603 65 203 2.0 7.0 0.00 0.00 0.00 82 1016.5
20221209142914 65 149 2.0 7.0 0.00 0.00 0.00 82 1016.4
20221209142017 65 107 2.0 7.0 0.00 0.00 0.00 80 1016.5
20221209141114 65 87 2.0 8.0 0.00 0.00 0.00 80 1016.3
20221209140004 65 109 3.0 8.0 0.00 0.00 0.00 79 1016.4
20221209135403 65 106 2.0 8.0 0.00 0.00 0.00 80 1016.5
20221209134715 65 94 2.0 11.0 0.00 0.00 0.00 79 1016.4
20221209133603 67 144 3.0 8.0 0.00 0.00 0.00 79 1016.5
20221209132915 67 157 4.0 8.0 0.00 0.00 0.00 77 1016.6
20221209131804 67 103 3.0 9.0 0.00 0.00 0.00 76 1016.5
20221209130904 68 189 2.0 9.0 0.00 0.00 0.00 77 1016.4
20221209130217 68 188 3.0 9.0 0.00 0.00 0.00 77 1016.7
20221209125613 67 149 3.0 9.0 0.00 0.00 0.00 77 1016.3
20221209124504 68 179 3.0 8.0 0.00 0.00 0.00 76 1016.4
20221209123813 67 210 4.0 7.0 0.00 0.00 0.00 77 1016.2
20221209122916 67 259 2.0 11.0 0.00 0.00 0.00 77 1016.4
20221209122013 67 165 3.0 11.0 0.00 0.00 0.00 76 1016.4
20221209121115 67 245 4.0 8.0 0.00 0.00 0.00 76 1016.5
20221209120218 67 205 3.0 9.0 0.00 0.00 0.00 76 1016.5
20221209115614 67 199 2.0 9.0 0.00 0.00 0.00 76 1016.6
20221209114716 67 135 4.0 9.0 0.00 0.00 0.00 76 1016.6
20221209113814 68 190 2.0 9.0 0.00 0.00 0.00 75 1016.6
20221209112704 67 120 3.0 8.0 0.00 0.00 0.00 76 1016.5
20221209112013 67 113 2.0 9.0 0.00 0.00 0.00 78 1016.8
20221209111116 67 265 3.0 13.0 0.00 0.00 0.00 78 1017.1
20221209110213 66 251 4.0 13.0 0.00 0.00 0.00 78 1016.9
20221209105403 67 175 4.0 8.0 0.00 0.00 0.00 79 1017.1
20221209104503 67 108 2.0 9.0 0.00 0.00 0.00 78 1017.0
20221209103604 67 89 5.0 9.0 0.00 0.00 0.00 75 1017.2
20221209102703 67 265 2.0 9.0 0.00 0.00 0.00 72 1017.2
20221209101803 68 138 3.0 8.0 0.00 0.00 0.00 75 1017.3
20221209101116 67 149 4.0 8.0 0.00 0.00 0.00 75 1017.4
20221209100214 68 119 3.0 11.0 0.00 0.00 0.00 74 1017.4
20221209095404 67 164 5.0 9.0 0.00 0.00 0.00 75 1017.6
20221209094718 66 201 5.0 9.0 0.00 0.00 0.00 77 1017.6
20221209093603 66 66 2.0 7.0 0.00 0.00 0.00 78 1018.0
20221209092703 66 162 3.0 9.0 0.00 0.00 0.00 77 1017.9
20221209092015 66 136 4.0 9.0 0.00 0.00 0.00 77 1017.9
20221209090903 66 99 2.0 9.0 0.00 0.00 0.00 77 1018.2
20221209090214 67 96 3.0 7.0 0.00 0.00 0.00 75 1018.1
20221209085616 67 117 2.0 7.0 0.00 0.00 0.00 73 1017.9
20221209084713 68 102 2.0 8.0 0.00 0.00 0.00 72 1018.1
20221209083603 67 113 4.0 7.0 0.00 0.00 0.00 73 1018.2